Change the Weather History Date:

Saturday, December 21, 2013

  Actual Average Record
Temperature  
Mean Temperature 34 °F -  
Max Temperature 37 °F 29 °F 42 °F (2003)
Min Temperature 32 °F 24 °F 10 °F (1996)
Degree Days  
Heating Degree Days 30    
Moisture  
Dew Point 31 °F    
Average Humidity 88    
Maximum Humidity 96    
Minimum Humidity 81    
Precipitation  
Precipitation 0.00 in - - ()
Sea Level Pressure  
Sea Level Pressure 30.41 in    
Wind  
Wind Speed 11 mph ()    
Max Wind Speed 18 mph    
Max Gust Speed -    
Visibility 6.7 miles    
Events Fog    
Averages and records for this station are not official NWS values.
T = Trace of Precipitation, MM = Missing Value Source: Averaged Metar Reports

Daily Weather History Graph

Daily Weather History Graph

Search for Another Location

Airport or City:

Trip Planner

Search our weather history database for the weather conditions in past years. The results will help you decide how hot, cold, wet, or windy it might be!

Date:

Astronomy

Dec. 21, 2013 Rise Set
Actual Time 8:09 AM CET 4:11 PM CET
Civil Twilight 7:31 AM CET 4:50 PM CET
Nautical Twilight 6:49 AM CET 5:32 PM CET
Astronomical Twilight 6:09 AM CET 6:12 PM CET
Moon 8:34 PM CET (12/21) 10:06 AM CET (12/21)
Length of Visible Light 9h 19m
Length of Day
8h 01m
Waning Gibbous, 86% of the Moon is Illuminated
Dec 21
Waning Gibbous
Dec 25
Last Quarter
Jan 1
New
Jan 8
First Quarter
Jan 16
Full

Hourly Weather History & Observations

Time (CET) Temp. Windchill Dew Point Humidity Pressure Visibility Wind Dir Wind Speed Gust Speed Precip Events Conditions
12:00 AM 34 °F - 31 °F 86% 30.50 in 12 mi WSW 15.7 mph - -  
12:20 AM 33.8 °F 23.9 °F 30.2 °F 87% 30.42 in 6.2 mi SW 15.0 mph - N/A   Partly Cloudy
12:50 AM 33.8 °F 24.3 °F 30.2 °F 87% 30.42 in 6.2 mi SSW 13.8 mph - N/A   Mostly Cloudy
1:00 AM 34 °F - 31 °F 85% 30.51 in 9 mi SW 11.2 mph - -  
1:20 AM 33.8 °F 25.3 °F 30.2 °F 87% 30.45 in 6.2 mi SW 11.5 mph - N/A   Overcast
1:50 AM 33.8 °F 25.3 °F 30.2 °F 87% 30.45 in 6.2 mi SW 11.5 mph - N/A   Overcast
2:00 AM 34 °F - 31 °F 82% 30.52 in 10 mi WSW 6.7 mph - -  
2:20 AM 33.8 °F 25.3 °F 30.2 °F 87% 30.45 in 6.2 mi SW 11.5 mph - N/A   Overcast
2:50 AM 33.8 °F 25.3 °F 30.2 °F 87% 30.45 in 6.2 mi SSW 11.5 mph - N/A   Overcast
3:00 AM 33 °F - 31 °F 88% 30.52 in 9 mi SSW 6.7 mph - -   Overcast
3:20 AM 33.8 °F 24.8 °F 30.2 °F 87% 30.42 in 6.2 mi SSW 12.7 mph - N/A   Overcast
3:50 AM 33.8 °F 24.3 °F 30.2 °F 87% 30.45 in 6.2 mi SSW 13.8 mph - N/A   Overcast
4:20 AM 32.0 °F 22.1 °F 30.2 °F 93% 30.45 in 6.2 mi SSW 13.8 mph - N/A   Overcast
4:50 AM 32.0 °F 22.1 °F 30.2 °F 93% 30.45 in 6.2 mi SSW 13.8 mph - N/A   Overcast
5:00 AM 32 °F - 30 °F 89% 30.53 in 8 mi SW 6.7 mph - -  
5:20 AM 32.0 °F 22.5 °F 30.2 °F 93% 30.45 in 6.2 mi SSW 12.7 mph - N/A   Overcast
5:50 AM 32.0 °F 23.0 °F 30.2 °F 93% 30.45 in 6.2 mi SSW 11.5 mph - N/A   Overcast
6:00 AM 33 °F - 30 °F 84% 30.52 in 9 mi SW 8.9 mph - -   Overcast
6:20 AM 32.0 °F 22.5 °F 30.2 °F 93% 30.45 in 6.2 mi SSW 12.7 mph - N/A   Overcast
6:50 AM 32.0 °F 23.6 °F 30.2 °F 93% 30.45 in 6.2 mi SSW 10.4 mph - N/A   Overcast
7:00 AM 33 °F - 30 °F 84% 30.52 in 10 mi SSW 6.7 mph - -   Overcast
7:20 AM 32.0 °F 24.2 °F 30.2 °F 93% 30.45 in 6.2 mi SSW 9.2 mph - N/A   Overcast
7:50 AM 33.8 °F 27.0 °F 30.2 °F 87% 30.45 in 6.2 mi South 8.1 mph - N/A   Overcast
8:00 AM 33 °F - 31 °F 87% 30.52 in 9 mi South 6.7 mph - -   Overcast
8:20 AM 32.0 °F 24.2 °F 30.2 °F 93% 30.45 in 5.0 mi South 9.2 mph - N/A   Overcast
8:50 AM 33.8 °F 24.8 °F 30.2 °F 87% 30.45 in 5.6 mi SSW 12.7 mph - N/A   Overcast
9:00 AM 33 °F - 31 °F 88% 30.52 in 7 mi SSW 8.9 mph - -   Mostly Cloudy
9:50 AM 32.0 °F 20.8 °F 30.2 °F 93% 30.45 in 6.2 mi SSW 17.3 mph - N/A   Mostly Cloudy
10:20 AM 32.0 °F 21.2 °F 30.2 °F 93% 30.45 in 5.6 mi SSW 16.1 mph - N/A   Mostly Cloudy
10:50 AM 32.0 °F 22.5 °F 30.2 °F 93% 30.42 in 0.4 mi South 12.7 mph - N/A Fog Fog
11:00 AM 32 °F - 31 °F 96% 30.51 in 2 mi South 11.2 mph - -   Mist
11:20 AM 32.0 °F 21.6 °F 30.2 °F 93% 30.42 in 0.7 mi South 15.0 mph - N/A   Overcast
11:50 AM 32.0 °F 21.2 °F 30.2 °F 93% 30.42 in - SSW 16.1 mph - N/A   Overcast
12:00 PM 33 °F - 32 °F 92% 30.49 in 4 mi SSW 11.2 mph - -   Mist
12:20 PM 33.8 °F 23.5 °F 32.0 °F 93% 30.42 in 5.0 mi SSW 16.1 mph - N/A   Mostly Cloudy
12:50 PM 33.8 °F 22.8 °F 30.2 °F 87% 30.39 in 5.0 mi SSW 18.4 mph - N/A   Scattered Clouds
1:00 PM 33 °F - 31 °F 89% 30.47 in 8 mi SSW 11.2 mph - -   Mostly Cloudy
1:20 PM 33.8 °F 23.2 °F 32.0 °F 93% 30.39 in 4.3 mi SSW 17.3 mph - N/A   Overcast
1:50 PM 33.8 °F 23.2 °F 30.2 °F 87% 30.39 in 6.2 mi SSW 17.3 mph - N/A   Mostly Cloudy
2:00 PM 34 °F - 31 °F 85% 30.45 in 11 mi SSW 11.2 mph - -   Partly Cloudy
2:20 PM 33.8 °F 24.3 °F 30.2 °F 87% 30.36 in 6.2 mi SSW 13.8 mph - N/A   Mostly Cloudy
2:50 PM 33.8 °F 23.5 °F 30.2 °F 87% 30.36 in 6.2 mi SSW 16.1 mph - N/A   Mostly Cloudy
3:00 PM 34 °F - 31 °F 82% 30.43 in 12 mi SSW 13.4 mph - -   Mostly Cloudy
3:20 PM 33.8 °F 23.2 °F 30.2 °F 87% 30.36 in 6.2 mi SSW 17.3 mph - N/A   Mostly Cloudy
3:50 PM 33.8 °F 23.9 °F 30.2 °F 87% 30.36 in 6.2 mi SSW 15.0 mph - N/A   Scattered Clouds
4:20 PM 33.8 °F 24.3 °F 30.2 °F 87% 30.36 in - SSW 13.8 mph - N/A   Clear
4:50 PM 33.8 °F 26.4 °F 30.2 °F 87% 30.36 in - SSW 9.2 mph - N/A   Clear
5:00 PM 34 °F - 31 °F 84% 30.42 in 11 mi SW 8.9 mph - -   Overcast
5:20 PM 32.0 °F 24.2 °F 30.2 °F 93% 30.36 in - South 9.2 mph - N/A   Clear
5:50 PM 33.8 °F 26.4 °F 30.2 °F 87% 30.36 in - SSW 9.2 mph - N/A   Clear
6:00 PM 34 °F - 31 °F 84% 30.41 in 10 mi SSW 8.9 mph - -   Overcast
6:20 PM 33.8 °F 25.3 °F 30.2 °F 87% 30.33 in - SSW 11.5 mph - N/A   Clear
6:50 PM 33.8 °F 24.8 °F 30.2 °F 87% 30.33 in - SSW 12.7 mph - N/A   Clear
7:00 PM 34 °F - 31 °F 82% 30.39 in 11 mi SSW 11.2 mph - -   Overcast
7:20 PM 33.8 °F 25.8 °F 30.2 °F 87% 30.30 in 6.2 mi South 10.4 mph - N/A   Unknown
7:50 PM 33.8 °F 27.0 °F 30.2 °F 87% 30.30 in 6.2 mi South 8.1 mph - N/A   Unknown
8:00 PM 33 °F - 30 °F 85% 30.37 in 9 mi South 8.9 mph - -   Overcast
8:20 PM 32.0 °F 24.8 °F 30.2 °F 93% 30.30 in 5.0 mi South 8.1 mph - N/A   Partly Cloudy
8:50 PM 32.0 °F 26.4 °F 30.2 °F 93% 30.30 in 5.6 mi South 5.8 mph - N/A   Unknown
9:00 PM 32 °F - 30 °F 91% 30.36 in 6 mi South 6.7 mph - -   Overcast
9:20 PM 32.0 °F 25.6 °F 28.4 °F 87% 30.27 in 5.0 mi South 6.9 mph - N/A   Scattered Clouds
9:50 PM 32.0 °F 23.6 °F 30.2 °F 93% 30.27 in 6.2 mi South 10.4 mph - N/A   Mostly Cloudy
10:20 PM 33.8 °F 25.8 °F 30.2 °F 87% 30.24 in 6.2 mi South 10.4 mph - N/A   Overcast
10:50 PM 33.8 °F 25.3 °F 30.2 °F 87% 30.24 in 5.6 mi South 11.5 mph - N/A   Mostly Cloudy
11:00 PM 35 °F - 32 °F 83% 30.30 in 7 mi South 8.9 mph - -   Overcast
11:20 PM 37.4 °F 29.3 °F 32.0 °F 81% 30.24 in 5.6 mi SSW 12.7 mph - N/A   Mostly Cloudy
11:50 PM 37.4 °F 27.8 °F 33.8 °F 87% 30.21 in 6.2 mi SSW 17.3 mph - N/A   Scattered Clouds